This is the latest recevied weather packets stored in our database for station/object IZ8FMH-11. If no packets are shown the sender has not sent any weather packets the latest 10 day(s).
| Time | Temp. | Humidity | Pressure | Rain* | Wind** | Luminosity | Snow |
|---|---|---|---|---|---|---|---|
| 1788156300 | 84° F | 65% | 758.9 mmHg | - | - | - | - |
| 1788154500 | 84° F | 66% | 759 mmHg | - | - | - | - |
| 1788152700 | 84° F | 66% | 758.9 mmHg | - | - | - | - |
| 1788150902 | 84° F | 66% | 758.8 mmHg | - | - | - | - |
| 1788149100 | 84° F | 67% | 758.9 mmHg | - | - | - | - |
| 1788147300 | 84° F | 67% | 758.8 mmHg | - | - | - | - |
| 1788145499 | 84° F | 67% | 758.9 mmHg | - | - | - | - |
| 1788143699 | 84° F | 68% | 759.1 mmHg | - | - | - | - |
| 1788141899 | 84° F | 67% | 759.1 mmHg | - | - | - | - |
| 1788140099 | 84° F | 68% | 759.1 mmHg | - | - | - | - |
| 1788138299 | 84° F | 67% | 759.1 mmHg | - | - | - | - |
| 1788136499 | 85° F | 69% | 759.1 mmHg | - | - | - | - |
| 1788134700 | 85° F | 69% | 758.9 mmHg | - | - | - | - |
| 1788132900 | 85° F | 64% | 758.8 mmHg | - | - | - | - |
| 1788131100 | 85° F | 64% | 758.8 mmHg | - | - | - | - |
| 1788127500 | 85° F | 62% | 758.7 mmHg | - | - | - | - |
| 1788123900 | 86° F | 66% | 758.6 mmHg | - | - | - | - |
| 1788122100 | 87° F | 68% | 758.6 mmHg | - | - | - | - |
| 1788120300 | 87° F | 68% | 758.5 mmHg | - | - | - | - |
| 1788118500 | 88° F | 67% | 758.3 mmHg | - | - | - | - |
| 1788116700 | 88° F | 65% | 758.2 mmHg | - | - | - | - |
| 1788114900 | 88° F | 66% | 757.9 mmHg | - | - | - | - |
| 1788113099 | 89° F | 64% | 757.5 mmHg | - | - | - | - |
| 1788111299 | 89° F | 63% | 757.3 mmHg | - | - | - | - |
| 1788109499 | 90° F | 61% | 757 mmHg | - | - | - | - |
* Rain since midnight (hover to see other rain measurements)
** Current wind speed in m/s (hover to see current wind gust speed)